GAOFEN-1

Last updated on Wed Sep 17 2025 00:02:30 GMT+0000 (Coordinated Universal Time)

1 39150U 13018A 25258.94231828 .00000653 00000+0 10068-3 0 9991 2 39150 97.9423 331.1063 0018892 72.0294 288.2974 14.76535687667778
UTC large
Height (km)
Speed (km/s)
/
Latitude / Longitude
Inclination (degrees)
Orbital Period (minutes)
Azimuth
Elevation
Range (km)
Doppler Factor

Next 0 passes for location: London (51.5072 / 0.1276)

Sorry there are no passes over London.